Regional Weather Roundup
Issued by NWS

Home | Current Version | Previous Version | Text Only | Print | Product List | Glossary Off
Versions: 1 2 3 4 5 6 7 8 9 10 11 12 13 14 15 16 17 18 19 20 21 22 23 24 25 26 27 28 29 30 31 32 33 34 35 36 37 38 39 40 41 42 43 44 45 46 47 48 49 50

000
ASUS43 KOAX 201102
RWRNE

WEATHER ROUNDUP FOR NEBRASKA
NATIONAL WEATHER SERVICE OMAHA NE
600 AM CDT SUN APR 20 2014

NOTES: SATELLITE DATA IS BEING USED TO AUGMENT CLOUD COVER ABOVE
       12000 FEET.
       "FAIR" INDICATES FEW OR NO CLOUDS BELOW 12,000 FEET WITH NO
       SIGNIFICANT WEATHER AND/OR OBSTRUCTIONS TO VISIBILITY.

  * THESE STATIONS DO NOT REPORT WEATHER SUCH AS RAIN...SNOW OR FOG.

NEZ001>004-019>022-054>056-201200-
NEBRASKA PANHANDLE

CITY           SKY/WX    TMP DP  RH WIND       PRES   REMARKS
SCOTTSBLUFF    CLEAR     40  33  76 E7        29.99F
ALLIANCE       CLEAR     38  35  89 S9        29.99F WCI  31
CHADRON        CLEAR     51  38  60 S6        29.93S
KIMBALL        CLEAR     42  38  86 SW9       30.00F
SIDNEY         CLEAR     36  32  85 SW8       30.02R WCI  30
$$

NEZ057>060-069>072-079>082-201200-
SOUTHWEST NEBRASKA

CITY           SKY/WX    TMP DP  RH WIND       PRES   REMARKS
NORTH PLATTE   CLEAR     38  35  89 CALM      30.01S
IMPERIAL       CLEAR     41  38  89 N6        29.99F
LEXINGTON      PTCLDY    46  42  86 NW10      29.98S
MCCOOK         CLOUDY    50  47  89 NW5       29.98R FOG
OGALLALA       CLEAR     36  32  86 NW3       30.01R
$$

NEZ005>010-023>029-035>040-094-201200-
NORTH CENTRAL NEBRASKA

CITY           SKY/WX    TMP DP  RH WIND       PRES   REMARKS
VALENTINE      CLEAR     31  25  78 W3        30.00F
AINSWORTH      CLEAR     42  30  62 CALM      30.00F
BROKEN BOW     CLEAR     41  35  79 SE3       29.99R
O`NEILL        PTCLDY    43  31  61 N6        29.99S
ORD            PTCLDY    49  35  58 N5        29.97R
THEDFORD       PTCLDY    41  36  81 W5        30.02S
$$

NEZ041-046>049-061>064-073>077-083>087-201200-
SOUTH CENTRAL NEBRASKA

CITY           SKY/WX    TMP DP  RH WIND       PRES   REMARKS
GRAND ISLAND   CLOUDY    54  49  83 W6        29.96R
AURORA         MOCLDY    59  51  75 SW9       29.95R
HASTINGS       MOCLDY    58  48  69 SW3       29.95R
HEBRON         MOCLDY    60  49  67 S13       29.97S
HOLDREGE       PTCLDY    51  48  87 NW3       29.96S
KEARNEY *      MOCLDY    54  46  76 NW5       29.97R
YORK           MOCLDY    55  50  82 S9        29.95S
$$

NEZ011>018-030>034-042>045-201200-
NORTHEAST NEBRASKA

CITY           SKY/WX    TMP DP  RH WIND       PRES   REMARKS
NORFOLK        MOCLDY    50  44  80 CALM      29.94S
ALBION         MOCLDY    48  39  71 CALM      29.96R
BLAIR          PTCLDY    61  46  57 S13       29.97R
COLUMBUS *     MOCLDY    55  45  67 CALM      29.96R
FREMONT        PTCLDY    61  47  59 S7        29.97R
TEKAMAH        PTCLDY    57  44  62 S10       29.96S
$$

NEZ050>053-065>068-078-088>093-201200-
SOUTHEAST NEBRASKA

CITY           SKY/WX    TMP DP  RH WIND       PRES   REMARKS
LINCOLN        PTCLDY    63  47  55 S14       29.96S
OMAHA EPPLEY   PTCLDY    61  46  57 S8        29.97F
BEATRICE       MOCLDY    64  48  57 S17       29.98S
FALLS CITY     MOCLDY    60  47  61 S10       30.02F
NEBRASKA CITY  PTCLDY    63  47  56 S17G24    30.00S
PLATTSMOUTH    CLOUDY    64  46  50 S22G28    29.97S
$$

NEZ044-045-051>053-067-201200-
OMAHA AREA

CITY           SKY/WX    TMP DP  RH WIND       PRES   REMARKS
OMAHA EPPLEY   PTCLDY    61  46  57 S8        29.97F
BLAIR          PTCLDY    61  46  57 S13       29.97R
FREMONT        PTCLDY    61  47  59 S7        29.97R
MILLARD        PTCLDY    62  46  57 S5        29.97S
OFFUTT AFB     MOCLDY    62  48  59 S9G18     29.97F
PLATTSMOUTH    CLOUDY    64  46  50 S22G28    29.97S
WAHOO          FAIR      58  46  62 CALM      29.96S
$$



USA.gov is the U.S. government's official web portal to all federal, state and local government web resources and services.